Regional Weather Roundup
Issued by NWS Charleston, SC

Current Version | Previous Version | Text Only | Print | Product List | Glossary Off
Versions: 1 2 3 4 5 6 7 8 9 10 11 12 13 14 15 16 17 18 19 20 21 22 23 24 25 26 27 28 29 30 31 32 33 34 35 36 37 38 39 40 41 42 43 44 45 46 47 48 49 50
000 ASUS42 KCHS 191628 RWRCHS REGIONAL WEATHER ROUNDUP NATIONAL WEATHER SERVICE CHARLESTON SC 1200 PM EDT SAT AUG 19 2017 NOTE: "FAIR" INDICATES FEW OR NO CLOUDS BELOW 12,000 FEET WITH NO SIGNIFICANT WEATHER AND/OR OBSTRUCTIONS TO VISIBILITY. NOT ALL STATIONS ARE QUALITY CONTROLLED. USE DATA WITH CAUTION... ESPECIALLY DEWPOINT OBSERVATIONS. SCZ027-030-031-034>040-042>050-191700- ...SOUTHEAST SOUTH CAROLINA... CITY SKY/WX TMP DP RH WIND PRES REMARKS N CHARLESTON MOSUNNY 90 74 59 VRB6 29.96S HX 99 WATERFRONT PRK N/A N/A N/A N/A VRB2 29.81S JOHNS ISLAND FAIR 90 81 74 S7 29.96F HX 108 PINOPOLIS N/A 90 75 62 SW5 29.88F HX 100 MONCKS CORNER FAIR 90 73 58 W5 29.95S HX 98 SUMMERVILLE FAIR 90 73 58 SW5 29.97S HX 98 BEAUFORT MCAS SUNNY 92 76 59 SW10 29.97S HX 104 BEAUFORT ARPT FAIR 90 73 58 SW5 29.96F HX 98 HILTON HEAD IS SUNNY 88 79 74 SE7 29.98S HX 102 WALTERBORO SUNNY 90 72 55 SW5 29.97F HX 96 ALLENDALE NOT AVBL ...SOUTHERN MIDLANDS AND PEE DEE... CITY SKY/WX TMP DP RH WIND PRES REMARKS GEORGETOWN FAIR 90 79 70 SW7 29.96S HX 105 KINGSTREE FAIR 91 72 52 S6 29.94F HX 98 ORANGEBURG MOSUNNY 91 69 48 SW7 29.97R HX 96 BARNWELL FAIR 93 70 46 SW7G14 29.97F HX 99 AIKEN FAIR 88 68 51 W6 30.01F HX 91 MANNING PTSUNNY 90 77 66 MISG 29.95F HX 102 COLUMBIA MOSUNNY 93 66 40 SW10 29.95S HX 96 SUMTER MOSUNNY 92 67 43 W9 29.93S HX 96 FLORENCE PTSUNNY 91 73 55 N5 29.95S HX 99 MYRTLE BEACH MOSUNNY 90 79 70 S8 29.96 HX 105 N MYRTLE BEACH SUNNY 88 77 69 S13 29.95S HX 100 $$ GAZ063-065-086>088-099>101-113>116-118-119-134>141-150-191700- ...SOUTHEAST GEORGIA... CITY SKY/WX TMP DP RH WIND PRES REMARKS SAVANNAH ARPT MOSUNNY 92 71 50 CALM 29.98F HX 98 HUNTER AAF SUNNY 91 74 58 SW5 29.95F HX 101 FORT STEWART SUNNY 91 70 49 W3 29.96F HX 97 STATESBORO SUNNY 91 62 38 W7 29.98F HX 91 SYLVANIA SUNNY 91 72 53 W5 29.99S HX 98 CLAXTON FAIR 92 69 46 SW9 29.99S HX 96 ...CSRA...CENTRAL AND FAR SOUTHEAST GEORGIA... CITY SKY/WX TMP DP RH WIND PRES REMARKS THOMSON MOSUNNY 87 66 48 NW7 30.05R AUGUSTA-BUSH SUNNY 91 67 44 SW9 29.97S HX 94 AUGUSTA-DANIEL SUNNY 89 63 41 VRB7 29.99S HX 90 SWAINSBORO FAIR 90 66 45 W8 30.01R HX 92 VIDALIA SUNNY 91 68 46 W9 30.00S HX 95 EASTMAN FAIR 92 46 19 CALM 30.02F HAZLEHURST FAIR 92 50 23 CALM 29.99F ALMA SUNNY 91 68 46 W5 29.99F HX 95 WAYCROSS PTSUNNY 91 67 46 NW5 29.99F HX 94 JESUP FAIR 91 68 46 CALM 29.99S HX 95 BAXLEY FAIR 88 66 48 N5 29.99F HX 90 BRUNSWICK SUNNY 88 72 58 NW3 29.99F HX 94 SAINT SIMONS SUNNY 86 77 74 SW8 30.00R HX 97 $$ SCZ027-028-034-036>038-045-046-048>050-GAZ119-141-191700- ...LAKE AND SUPPLEMENTAL COASTAL OBSERVATIONS... STATION/POSITION TIME TEMP WIND PRES WAVE SWELL AIR SEA DIR/SP/G HT/PER HT/PER/DIR (UTC) (F) (DEG/KT/KT) (MB) (FT/S) (FT/S/D) WINYAH BAY 1545 89 180/ 6 1014.0S LAKE MURRAY 1620 86 210/ 8/ 11 1013.5 ACE BASIN NERRS 1545 90 220/ 1 1015.0S FORT PULASKI 1600 86 86 210/ 5/ 7 1015.4 SAPELO ISLAND 1600 89 CALM 1016.0 $$ ANZ835-935-AMZ111-154-330-350-352-354-370-450-454-472-191700- ...C-MAN AND BUOY OBSERVATIONS... STATION/POSITION TIME TEMP WIND PRES WAVE SWELL AIR SEA DIR/SP/G HT/PER HT/PER/DIR (UTC) (F) (DEG/KT/KT) (MB) (FT/S) (FT/S/D) BUOY 41004 1610 84 85 240/ 12/ 14 1014.9 BUOY 41008 1550 82 85 210/ 8/ 10 1015.5R 2/ 8 2/110/ 8 FOLLY BEACH CMAN 1600 86 210/ 10/ 11 1015.5S CAPERS NEARSHORE 1608 83 85 230/ 12/ 16 1014.7S FRIPP NEARSHORE 1608 84 210/ 8/ 10 1014.9S STATION/POSITION TIME TEMP WIND PRES WAVE SWELL AIR SEA DIR/SP/G HT/PER HT/PER/DIR (UTC) (F) (DEG/KT/KT) (MB) (FT/S) (FT/S/D) 5E ST. MARYS GA 1600 85 N/A 1/ 8 FRYING PAN BUOY 1610 84 84 220/ 12/ 16 1014.6 BUOY 41025 1550 84 84 240/ 16/ 17 1014.1R 5/ 6 2/150/10 CAPE LOOKOUT NC 1600 86 230/ 9/ 14 1014.0R BUOY 41002 1550 84 84 220/ 10/ 14 1017.2F 4/ 9 3/ 90/ 9 BUOY 41010 1610 85 86 170/ 6/ 8 1016.8 ST AUGUSTINE FL 1600 84 82 120/ 7/ 8 1016.7F $$

USA.gov is the U.S. government's official web portal to all federal, state and local government web resources and services.